This is the latest recevied weather packets stored in our database for station/object KW4UJ. If no packets are shown the sender has not sent any weather packets the latest 10 day(s).
| Time | Temp. | Humidity | Pressure | Rain* | Wind** | Luminosity | Snow |
|---|---|---|---|---|---|---|---|
| 1777901378 | 16.67° C | 45% | 1014.2 hPa | 0 mm | - | 353 W/m² | - |
| 1777901076 | 16.67° C | 46% | 1014.3 hPa | 0 mm | - | 341 W/m² | - |
| 1777900773 | 16.67° C | 45% | 1014.4 hPa | 0 mm | - | 315 W/m² | - |
| 1777900470 | 15.56° C | 47% | 1014.3 hPa | 0 mm | - | 314 W/m² | - |
| 1777900167 | 15° C | 47% | 1014.4 hPa | 0 mm | - | 277 W/m² | - |
| 1777899864 | 15.56° C | 47% | 1014.6 hPa | 0 mm | - | 290 W/m² | - |
| 1777899560 | 15° C | 48% | 1014.8 hPa | 0 mm | - | 61 W/m² | - |
| 1777899258 | 15.56° C | 48% | 1014.8 hPa | 0 mm | - | 262 W/m² | - |
| 1777898955 | 15° C | 50% | 1014.7 hPa | 0 mm | - | 251 W/m² | - |
| 1777898652 | 15° C | 49% | 1014.7 hPa | 0 mm | - | 237 W/m² | - |
| 1777898349 | 13.89° C | 51% | 1014.8 hPa | 0 mm | - | 220 W/m² | - |
| 1777898048 | 13.89° C | 53% | 1014.9 hPa | 0 mm | - | 120 W/m² | - |
| 1777897743 | 13.89° C | 52% | 1014.9 hPa | 0 mm | - | 154 W/m² | - |
| 1777897439 | 13.33° C | 55% | 1014.9 hPa | 0 mm | - | 181 W/m² | - |
| 1777897136 | 12.78° C | 56% | 1014.9 hPa | 0 mm | - | 162 W/m² | - |
| 1777896832 | 12.22° C | 58% | 1014.9 hPa | 0 mm | - | 151 W/m² | - |
| 1777896529 | 12.22° C | 59% | 1014.7 hPa | 0 mm | - | 150 W/m² | - |
| 1777896226 | 12.22° C | 59% | 1014.8 hPa | 0 mm | - | 139 W/m² | - |
| 1777895924 | 11.67° C | 60% | 1014.7 hPa | 0 mm | - | 127 W/m² | - |
| 1777895622 | 11.11° C | 60% | 1015 hPa | 0 mm | - | 87 W/m² | - |
| 1777895319 | 10.56° C | 62% | 1014.8 hPa | 0 mm | - | 102 W/m² | - |
| 1777895017 | 10.56° C | 65% | 1014.9 hPa | 0 mm | - | 93 W/m² | - |
| 1777894714 | 10.56° C | 64% | 1015 hPa | 0 mm | - | 47 W/m² | - |
| 1777894410 | 10.56° C | 63% | 1015.2 hPa | 0 mm | - | 47 W/m² | - |
| 1777894108 | 10.56° C | 63% | 1015 hPa | 0 mm | - | 71 W/m² | - |
* Rain latest hour (hover to see other rain measurements)
** Current wind speed in m/s (hover to see current wind gust speed)